Simultaneous Nadir Overpasses (SNOs) Predictions

Prediction of SNOs between GOES-16 and NOAA-19 Satellite Orbit:

Table of predicted SNOs for the next 14.0 days since TLE Epoch: 2/1/2025
Index Date Time (GOES-16) GOES-16 Lat,Lon NOAA-19 Lat,Lon Distance(km) Time Diff (sec)
1 02/03/2025 02:52:59 -0.00, -75.20 -0.74, -78.31 356.36 80
2 02/04/2025 02:40:26 -0.00, -75.21 -0.05, -75.27 7.67 80
3 02/05/2025 02:25:15 -0.00, -75.23 0.71, -72.23 342.55 80
4 02/07/2025 14:44:02 0.01, -75.31 0.31, -76.71 159.32 80
5 02/08/2025 14:34:09 0.01, -75.33 -0.37, -73.66 190.46 80
6 02/11/2025 02:53:02 -0.02, -75.36 -0.64, -78.17 320.27 80
7 02/12/2025 02:37:49 -0.02, -75.39 0.02, -75.11 30.50 80
8 02/13/2025 02:25:16 -0.01, -75.41 0.73, -72.07 381.20 80
9 02/14/2025 14:56:37 0.02, -75.50 0.94, -79.61 469.01 80
